User: anonymous
Location: Unspecified
(0.0000°N, 0.0000°E)
Time: 18:25:18
(UTC+02:00)
Language:

Transit 2A - Orbit

View from above orbital plane
View from above orbital plane
View from above satellite
View from above satellite

Ground track
Ground track

The orbit data is extracted from the following two-line orbital elements,

1 00045U 60007A   14208.73389705 -.00000013  00000-0  23693-4 0  1959
2 00045 066.6955 289.7033 0249841 081.1577 064.0391 14.33018787814308
Epoch (UTC): 27 July 2014 17:36:48
Eccentricity: 0.0249841
inclination: 66.6955°
perigee height: 603 km
apogee height: 960 km
right ascension of ascending node: 289.7033°
argument of perigee: 81.1577°
revolutions per day: 14.33018787
mean anomaly at epoch: 64.0391°
orbit number at epoch: 81430

The dashed part of the orbit path shows where the satellite is in the earth's shadow,  

DLR